ANZ148 ESGG-ESSA

Flight info

Callsign ANZ148
Flight time 0h 43m
Altitude 31000
Route LABAN N873 ARS T317 ELTOK
Aircraft A20N/M-SDE2E3FGHIRWXY/LB1

Departure

Time 2026-05-06 10:11
Airport Göteborg Landvetter Airport (ESGG)

Arrival

Time 2026-05-06 10:54
Airport Stockholm-Arlanda Airport (ESSA)
Time Latitude Longitude Altitude Speed Heading
2026-05-06 09:51 57.66727 12.29273 508 ft 0 kts 116°
2026-05-06 10:01 57.66728 12.29273 508 ft 0 kts 116°
2026-05-06 10:01 57.66728 12.29272 508 ft 2 kts 116°
2026-05-06 10:02 57.66734 12.29245 508 ft 2 kts 111°
2026-05-06 10:02 57.66739 12.29216 508 ft 2 kts 101°
2026-05-06 10:02 57.66741 12.29185 508 ft 2 kts 87°
2026-05-06 10:02 57.66738 12.29155 507 ft 2 kts 65°
2026-05-06 10:03 57.66729 12.29129 507 ft 2 kts 40°
2026-05-06 10:03 57.66718 12.29114 507 ft 1 kts 26°
2026-05-06 10:03 57.66716 12.29112 507 ft 0 kts 24°
2026-05-06 10:04 57.66733 12.29123 507 ft 4 kts 10°
2026-05-06 10:05 57.66771 12.29077 508 ft 9 kts 317°
2026-05-06 10:05 57.66839 12.29006 508 ft 12 kts
2026-05-06 10:05 57.66924 12.29084 509 ft 14 kts 27°
2026-05-06 10:05 57.67015 12.29116 510 ft 15 kts 334°
2026-05-06 10:06 57.67103 12.29082 510 ft 13 kts 17°
2026-05-06 10:06 57.67196 12.29157 511 ft 15 kts 26°
2026-05-06 10:06 57.67296 12.29251 512 ft 17 kts 26°
2026-05-06 10:06 57.67392 12.29338 513 ft 13 kts 26°
2026-05-06 10:07 57.67474 12.29412 514 ft 12 kts 25°
2026-05-06 10:07 57.67542 12.29460 515 ft 9 kts
2026-05-06 10:07 57.67588 12.29406 515 ft 5 kts 294°
2026-05-06 10:07 57.67590 12.29384 515 ft 0 kts 276°
2026-05-06 10:08 57.67591 12.29372 515 ft 1 kts 274°
2026-05-06 10:09 57.67587 12.29272 515 ft 11 kts 257°
2026-05-06 10:09 57.67547 12.29129 513 ft 14 kts 214°
2026-05-06 10:09 57.67516 12.29097 512 ft 0 kts 206°
2026-05-06 10:10 57.67440 12.29028 512 ft 42 kts 205°
2026-05-06 10:10 57.66959 12.28592 509 ft 109 kts 206°
2026-05-06 10:10 57.66121 12.27827 519 ft 156 kts 206°
2026-05-06 10:10 57.65119 12.26892 945 ft 166 kts 206°
2026-05-06 10:11 57.64073 12.25890 1605 ft 172 kts 206°
2026-05-06 10:11 57.62975 12.24875 2165 ft 183 kts 200°
2026-05-06 10:11 57.61687 12.24178 2665 ft 201 kts 189°
2026-05-06 10:11 57.60215 12.23907 3251 ft 225 kts 180°
2026-05-06 10:12 57.58586 12.24207 3930 ft 244 kts 165°
2026-05-06 10:12 57.56950 12.25466 4612 ft 263 kts 147°
2026-05-06 10:12 57.55666 12.27627 5095 ft 235 kts 124°
2026-05-06 10:12 57.55072 12.30289 5343 ft 221 kts 97°
2026-05-06 10:13 57.55178 12.33108 5603 ft 223 kts 72°
2026-05-06 10:13 57.55946 12.35639 5978 ft 225 kts 51°
2026-05-06 10:13 57.57021 12.37972 6430 ft 250 kts 51°
2026-05-06 10:13 57.58077 12.40726 7044 ft 271 kts 58°
2026-05-06 10:14 57.58974 12.43827 7980 ft 280 kts 63°
2026-05-06 10:14 57.59774 12.47189 8960 ft 288 kts 66°
2026-05-06 10:14 57.60529 12.50677 9988 ft 293 kts 67°
2026-05-06 10:14 57.61293 12.54320 10617 ft 313 kts 66°
2026-05-06 10:15 57.62391 12.57979 10986 ft 336 kts 51°
2026-05-06 10:15 57.64104 12.61066 11551 ft 348 kts 33°
2026-05-06 10:15 57.66127 12.63619 12384 ft 355 kts 31°
2026-05-06 10:15 57.68190 12.66231 13224 ft 362 kts 31°
2026-05-06 10:16 57.70293 12.68912 14000 ft 370 kts 31°
2026-05-06 10:16 57.72433 12.71645 14757 ft 376 kts 31°
2026-05-06 10:16 57.74607 12.74428 15523 ft 381 kts 31°
2026-05-06 10:16 57.76815 12.77260 16252 ft 388 kts 31°
2026-05-06 10:17 57.79061 12.80143 16989 ft 394 kts 31°
2026-05-06 10:17 57.81339 12.83073 17694 ft 400 kts 31°
2026-05-06 10:17 57.83652 12.86050 18397 ft 406 kts 30°
2026-05-06 10:17 57.85997 12.89075 19013 ft 411 kts 30°
2026-05-06 10:18 57.88370 12.92139 19629 ft 417 kts 30°
2026-05-06 10:18 57.90776 12.95250 20239 ft 422 kts 30°
2026-05-06 10:18 57.93211 12.98404 20841 ft 428 kts 30°
2026-05-06 10:18 57.95676 13.01603 21447 ft 433 kts 30°
2026-05-06 10:19 57.98172 13.04848 22051 ft 438 kts 30°
2026-05-06 10:19 58.00693 13.08131 22632 ft 443 kts 30°
2026-05-06 10:19 58.03246 13.11460 23228 ft 449 kts 30°
2026-05-06 10:19 58.05824 13.14830 23766 ft 454 kts 30°
2026-05-06 10:20 58.08430 13.18242 24262 ft 458 kts 30°
2026-05-06 10:20 58.11057 13.21687 24749 ft 462 kts 30°
2026-05-06 10:20 58.13711 13.25174 25219 ft 467 kts 30°
2026-05-06 10:20 58.16324 13.28895 25691 ft 474 kts 37°
2026-05-06 10:21 58.18696 13.33314 26133 ft 483 kts 46°
2026-05-06 10:21 58.20880 13.38188 26564 ft 487 kts 47°
2026-05-06 10:21 58.23092 13.43095 27001 ft 491 kts 47°
2026-05-06 10:21 58.25327 13.48040 27438 ft 495 kts 47°
2026-05-06 10:22 58.27575 13.53030 27836 ft 499 kts 47°
2026-05-06 10:22 58.29839 13.58070 28234 ft 503 kts 47°
2026-05-06 10:22 58.32115 13.63157 28622 ft 507 kts 47°
2026-05-06 10:22 58.34407 13.68293 29015 ft 511 kts 47°
2026-05-06 10:23 58.36713 13.73472 29378 ft 514 kts 47°
2026-05-06 10:23 58.39033 13.78696 29728 ft 518 kts 47°
2026-05-06 10:23 58.41366 13.83960 29967 ft 521 kts 47°
2026-05-06 10:23 58.43704 13.89248 29990 ft 521 kts 47°
2026-05-06 10:24 58.48376 13.99850 29994 ft 522 kts 47°
2026-05-06 10:24 58.53043 14.10487 29994 ft 522 kts 47°
2026-05-06 10:25 58.57705 14.21160 30000 ft 523 kts 47°
2026-05-06 10:25 58.62358 14.31861 29987 ft 523 kts 48°
2026-05-06 10:26 58.67009 14.42604 29995 ft 523 kts 47°
2026-05-06 10:26 58.71618 14.53297 30000 ft 523 kts 48°
2026-05-06 10:27 58.76257 14.64109 29998 ft 524 kts 48°
2026-05-06 10:27 58.80892 14.74965 29995 ft 524 kts 48°
2026-05-06 10:28 58.85517 14.85847 29997 ft 524 kts 48°
2026-05-06 10:28 58.90138 14.96770 29792 ft 523 kts 48°
2026-05-06 10:29 58.92423 15.02193 29206 ft 518 kts 48°
2026-05-06 10:29 58.94687 15.07578 28402 ft 513 kts 48°
2026-05-06 10:29 58.96919 15.12902 27596 ft 504 kts 48°
2026-05-06 10:29 58.99108 15.18136 26809 ft 495 kts 48°
2026-05-06 10:30 59.01255 15.23279 26046 ft 487 kts 47°
2026-05-06 10:30 59.03376 15.28367 25304 ft 482 kts 47°
2026-05-06 10:30 59.05472 15.33406 24574 ft 477 kts 47°
2026-05-06 10:30 59.07540 15.38389 23882 ft 472 kts 47°
2026-05-06 10:31 59.09600 15.43359 23110 ft 472 kts 47°
2026-05-06 10:31 59.11656 15.48329 22298 ft 471 kts 47°
2026-05-06 10:31 59.13709 15.53304 21501 ft 470 kts 47°
2026-05-06 10:31 59.15750 15.58263 20719 ft 468 kts 47°
2026-05-06 10:32 59.17782 15.63214 19968 ft 466 kts 47°
2026-05-06 10:32 59.19801 15.68138 19232 ft 464 kts 48°
2026-05-06 10:32 59.21807 15.73043 18514 ft 461 kts 48°
2026-05-06 10:32 59.23798 15.77928 17725 ft 458 kts 48°
2026-05-06 10:33 59.25757 15.82751 16995 ft 446 kts 48°
2026-05-06 10:33 59.27647 15.87419 16322 ft 431 kts 47°
2026-05-06 10:33 59.29479 15.91947 15658 ft 418 kts 47°
2026-05-06 10:33 59.31256 15.96346 15006 ft 407 kts 47°
2026-05-06 10:34 59.32987 16.00633 14372 ft 396 kts 47°
2026-05-06 10:34 59.34676 16.04822 13731 ft 387 kts 47°
2026-05-06 10:34 59.36327 16.08918 13018 ft 379 kts 47°
2026-05-06 10:34 59.37942 16.12927 12322 ft 371 kts 48°
2026-05-06 10:35 59.39522 16.16858 11643 ft 363 kts 48°
2026-05-06 10:35 59.41069 16.20714 10976 ft 356 kts 49°
2026-05-06 10:35 59.42589 16.24505 10360 ft 349 kts 49°
2026-05-06 10:35 59.44064 16.28198 10104 ft 344 kts 49°
2026-05-06 10:36 59.45552 16.31925 10018 ft 346 kts 50°
2026-05-06 10:36 59.47012 16.35593 10015 ft 347 kts 50°
2026-05-06 10:36 59.48501 16.39338 10018 ft 346 kts 50°
2026-05-06 10:36 59.49978 16.43063 10019 ft 344 kts 50°
2026-05-06 10:37 59.51433 16.46740 10025 ft 340 kts 50°
2026-05-06 10:37 59.52894 16.50432 10010 ft 340 kts 50°
2026-05-06 10:37 59.54315 16.54039 9953 ft 326 kts 50°
2026-05-06 10:37 59.55666 16.57476 9944 ft 308 kts 50°
2026-05-06 10:38 59.56951 16.60747 9821 ft 298 kts 50°
2026-05-06 10:38 59.58249 16.63947 9462 ft 298 kts 45°
2026-05-06 10:38 59.59764 16.66660 9114 ft 292 kts 33°
2026-05-06 10:38 59.61409 16.68955 8745 ft 288 kts 32°
2026-05-06 10:39 59.63032 16.71242 8411 ft 285 kts 33°
2026-05-06 10:39 59.64633 16.73515 8102 ft 282 kts 33°
2026-05-06 10:39 59.66227 16.75780 8005 ft 283 kts 33°
2026-05-06 10:39 59.67285 16.77285 8005 ft 282 kts 33°
2026-05-06 10:40 59.68877 16.79554 7992 ft 282 kts 33°
2026-05-06 10:40 59.70476 16.81829 7996 ft 283 kts 33°
2026-05-06 10:40 59.72071 16.84100 7998 ft 282 kts 33°
2026-05-06 10:40 59.73663 16.86376 7996 ft 282 kts 33°
2026-05-06 10:41 59.75257 16.88653 7984 ft 282 kts 33°
2026-05-06 10:41 59.76849 16.90932 7997 ft 282 kts 33°
2026-05-06 10:41 59.78439 16.93215 7992 ft 283 kts 33°
2026-05-06 10:41 59.80022 16.95491 7900 ft 282 kts 33°
2026-05-06 10:42 59.81576 16.97854 7517 ft 283 kts 43°
2026-05-06 10:42 59.82642 17.01133 7088 ft 285 kts 70°
2026-05-06 10:42 59.83031 17.04930 6688 ft 277 kts 84°
2026-05-06 10:42 59.83019 17.08724 6281 ft 272 kts 92°
2026-05-06 10:43 59.82952 17.12396 6045 ft 258 kts 93°
2026-05-06 10:43 59.82879 17.15829 5997 ft 238 kts 92°
2026-05-06 10:43 59.82801 17.19077 5964 ft 239 kts 92°
2026-05-06 10:44 59.82635 17.25699 5329 ft 239 kts 92°
2026-05-06 10:44 59.82544 17.28947 5065 ft 231 kts 93°
2026-05-06 10:44 59.82457 17.31840 5006 ft 227 kts 93°
2026-05-06 10:44 59.82355 17.35066 5000 ft 236 kts 93°
2026-05-06 10:45 59.82249 17.38307 5004 ft 234 kts 93°
2026-05-06 10:45 59.82146 17.41540 5021 ft 236 kts 93°
2026-05-06 10:45 59.82039 17.44794 5018 ft 235 kts 93°
2026-05-06 10:45 59.81934 17.48047 4805 ft 237 kts 93°
2026-05-06 10:46 59.81828 17.51329 4459 ft 239 kts 93°
2026-05-06 10:46 59.81723 17.54604 4108 ft 237 kts 93°
2026-05-06 10:46 59.81619 17.57875 3765 ft 237 kts 93°
2026-05-06 10:46 59.81510 17.61131 3456 ft 237 kts 93°
2026-05-06 10:47 59.81401 17.64422 3125 ft 239 kts 93°
2026-05-06 10:47 59.81294 17.67703 2900 ft 237 kts 93°
2026-05-06 10:47 59.81186 17.70945 2694 ft 234 kts 93°
2026-05-06 10:47 59.81074 17.74146 2506 ft 228 kts 94°
2026-05-06 10:48 59.80975 17.77152 2524 ft 207 kts 93°
2026-05-06 10:48 59.80884 17.79935 2511 ft 205 kts 93°
2026-05-06 10:48 59.80784 17.82843 2499 ft 212 kts 93°
2026-05-06 10:48 59.80685 17.85724 2456 ft 207 kts 93°
2026-05-06 10:49 59.80583 17.88563 2478 ft 203 kts 94°
2026-05-06 10:49 59.80476 17.91420 2469 ft 211 kts 94°
2026-05-06 10:49 59.80373 17.94277 2479 ft 203 kts 93°
2026-05-06 10:49 59.80238 17.96961 2477 ft 195 kts 103°
2026-05-06 10:50 59.79543 17.99201 2494 ft 193 kts 144°
2026-05-06 10:50 59.78325 18.00190 2495 ft 188 kts 176°
2026-05-06 10:50 59.77018 18.00224 2454 ft 184 kts 189°
2026-05-06 10:50 59.75801 17.99858 2394 ft 171 kts 195°
2026-05-06 10:51 59.74689 17.99454 2233 ft 150 kts 195°
2026-05-06 10:51 59.73734 17.99126 2026 ft 135 kts 194°
2026-05-06 10:51 59.72825 17.98880 1816 ft 131 kts 193°
2026-05-06 10:51 59.71910 17.98657 1814 ft 133 kts 193°
2026-05-06 10:52 59.71002 17.98348 1697 ft 131 kts 201°
2026-05-06 10:52 59.70130 17.97914 1487 ft 127 kts 202°
2026-05-06 10:52 59.69248 17.97470 1215 ft 131 kts 195°
2026-05-06 10:52 59.68357 17.97238 916 ft 129 kts 197°
2026-05-06 10:53 59.67475 17.96863 655 ft 127 kts 196°
2026-05-06 10:53 59.66616 17.96511 484 ft 127 kts 194°
2026-05-06 10:53 59.65750 17.96220 306 ft 124 kts 194°
2026-05-06 10:53 59.64906 17.95902 147 ft 122 kts 195°
2026-05-06 10:54 59.64137 17.95607 112 ft 96 kts 188°
2026-05-06 10:54 59.63654 17.95438 116 ft 40 kts 188°
2026-05-06 10:54 59.63457 17.95359 119 ft 26 kts 204°
2026-05-06 10:55 59.63422 17.94949 120 ft 8 kts 12°
2026-05-06 10:56 59.63493 17.94978 116 ft 13 kts 11°
2026-05-06 10:56 59.63591 17.95014 114 ft 17 kts 10°
2026-05-06 10:56 59.63726 17.95059 111 ft 22 kts 10°
2026-05-06 10:56 59.63859 17.95114 109 ft 18 kts 10°
2026-05-06 10:57 59.63970 17.95148 108 ft 13 kts 10°
2026-05-06 10:57 59.64070 17.95189 108 ft 17 kts 11°
2026-05-06 10:57 59.64187 17.95231 106 ft 18 kts 10°
2026-05-06 10:57 59.64322 17.95276 106 ft 21 kts
2026-05-06 10:58 59.64479 17.95330 105 ft 25 kts 11°
2026-05-06 10:58 59.64640 17.95392 104 ft 22 kts 12°
2026-05-06 10:58 59.64774 17.95446 106 ft 19 kts 16°
2026-05-06 10:58 59.64902 17.95496 108 ft 20 kts
2026-05-06 10:59 59.65031 17.95518 111 ft 18 kts 355°
2026-05-06 10:59 59.65163 17.95454 119 ft 21 kts 343°
2026-05-06 10:59 59.65315 17.95367 126 ft 24 kts 343°
2026-05-06 10:59 59.65477 17.95284 129 ft 21 kts 347°
2026-05-06 11:00 59.65609 17.95213 125 ft 20 kts 345°
2026-05-06 11:00 59.65722 17.95149 126 ft 16 kts 327°
2026-05-06 11:00 59.65738 17.94927 125 ft 19 kts 254°
2026-05-06 11:00 59.65704 17.94668 120 ft 17 kts 255°
2026-05-06 11:01 59.65674 17.94438 123 ft 18 kts 256°
2026-05-06 11:01 59.65649 17.94221 123 ft 16 kts 255°
2026-05-06 11:01 59.65618 17.93987 116 ft 19 kts 256°
2026-05-06 11:01 59.65586 17.93725 112 ft 19 kts 256°
2026-05-06 11:02 59.65554 17.93473 111 ft 19 kts 255°
2026-05-06 11:02 59.65525 17.93250 111 ft 13 kts 257°
2026-05-06 11:02 59.65507 17.93096 111 ft 9 kts 256°
2026-05-06 11:02 59.65491 17.92986 111 ft 9 kts 247°
2026-05-06 11:03 59.65448 17.92953 112 ft 6 kts 175°
2026-05-06 11:03 59.65426 17.92996 111 ft 6 kts 103°
2026-05-06 11:03 59.65412 17.93036 110 ft 4 kts 142°
2026-05-06 11:03 59.65394 17.93040 111 ft 1 kts 186°
2026-05-06 11:04 59.65385 17.93037 109 ft 0 kts 189°